Year,Month,Day,Hour,Minute,Value (Times are PST for temperature in C)
2016,07,17,00,00,16.20
2016,07,17,00,01,16.20
2016,07,17,00,02,16.20
2016,07,17,00,03,16.10
2016,07,17,00,04,16.10
2016,07,17,00,05,16.10
2016,07,17,00,06,16.10
2016,07,17,00,07,16.10
2016,07,17,00,08,16.10
2016,07,17,00,09,16.10
2016,07,17,00,10,16.10
2016,07,17,00,11,16.10
2016,07,17,00,12,16.10
2016,07,17,00,13,16.10
2016,07,17,00,14,16.10
2016,07,17,00,15,16.10
2016,07,17,00,16,16.00
2016,07,17,00,17,16.00
2016,07,17,00,18,16.00
2016,07,17,00,19,16.00
2016,07,17,00,20,16.00
2016,07,17,00,21,16.00
2016,07,17,00,22,15.90
2016,07,17,00,23,15.90
2016,07,17,00,24,15.90
2016,07,17,00,25,15.90
2016,07,17,00,26,15.90
2016,07,17,00,27,15.90
2016,07,17,00,28,15.90
2016,07,17,00,29,15.90
2016,07,17,00,30,15.90
2016,07,17,00,31,15.90
2016,07,17,00,32,15.90
2016,07,17,00,33,15.90
2016,07,17,00,34,15.90
2016,07,17,00,35,15.90
2016,07,17,00,36,15.90
2016,07,17,00,37,15.90
2016,07,17,00,38,15.90
2016,07,17,00,39,15.90
2016,07,17,00,40,15.90
2016,07,17,00,41,15.90
2016,07,17,00,42,15.90
2016,07,17,00,43,15.90
2016,07,17,00,44,15.90
2016,07,17,00,45,15.90
2016,07,17,00,46,15.90
2016,07,17,00,47,15.90
2016,07,17,00,48,15.90
2016,07,17,00,49,15.90
2016,07,17,00,50,15.90
2016,07,17,00,51,15.90
2016,07,17,00,52,16.00
2016,07,17,00,53,16.00
2016,07,17,00,54,16.00
2016,07,17,00,55,16.00
2016,07,17,00,56,16.00
2016,07,17,00,57,16.00
2016,07,17,00,58,16.10
2016,07,17,00,59,16.10
2016,07,17,01,00,16.10
2016,07,17,01,01,16.10
2016,07,17,01,02,16.10
2016,07,17,01,03,16.10
2016,07,17,01,04,16.10
2016,07,17,01,05,16.10
2016,07,17,01,06,16.10
2016,07,17,01,07,16.10
2016,07,17,01,08,16.10
2016,07,17,01,09,16.10
2016,07,17,01,10,16.10
2016,07,17,01,11,16.10
2016,07,17,01,12,16.00
2016,07,17,01,13,16.00
2016,07,17,01,14,16.00
2016,07,17,01,15,16.00
2016,07,17,01,16,16.00
2016,07,17,01,17,16.00
2016,07,17,01,18,16.00
2016,07,17,01,19,16.00
2016,07,17,01,20,15.90
2016,07,17,01,21,15.90
2016,07,17,01,22,15.90
2016,07,17,01,23,15.90
2016,07,17,01,24,15.90
2016,07,17,01,25,15.90
2016,07,17,01,26,15.90
2016,07,17,01,27,15.90
2016,07,17,01,28,15.90
2016,07,17,01,29,15.90
2016,07,17,01,30,15.90
2016,07,17,01,31,15.90
2016,07,17,01,32,15.90
2016,07,17,01,33,15.90
2016,07,17,01,34,15.90
2016,07,17,01,35,15.90
2016,07,17,01,36,15.90
2016,07,17,01,37,15.90
2016,07,17,01,38,15.90
2016,07,17,01,39,15.90
2016,07,17,01,40,15.90
2016,07,17,01,41,15.90
2016,07,17,01,42,15.90
2016,07,17,01,43,15.90
2016,07,17,01,44,15.90
2016,07,17,01,45,15.90
2016,07,17,01,46,15.90
2016,07,17,01,47,15.90
2016,07,17,01,48,15.90
2016,07,17,01,49,15.90
2016,07,17,01,50,15.90
2016,07,17,01,51,15.90
2016,07,17,01,52,15.90
2016,07,17,01,53,15.90
2016,07,17,01,54,15.90
2016,07,17,01,55,15.90
2016,07,17,01,56,15.90
2016,07,17,01,57,15.90
2016,07,17,01,58,15.80
2016,07,17,01,59,15.80
2016,07,17,02,00,15.80
2016,07,17,02,01,15.80
2016,07,17,02,02,15.80
2016,07,17,02,03,15.80
2016,07,17,02,04,15.80
2016,07,17,02,05,15.80
2016,07,17,02,06,15.80
2016,07,17,02,07,15.80
2016,07,17,02,08,15.90
2016,07,17,02,09,15.90
2016,07,17,02,10,15.90
2016,07,17,02,11,15.90
2016,07,17,02,12,15.90
2016,07,17,02,13,15.90
2016,07,17,02,14,15.90
2016,07,17,02,15,15.90
2016,07,17,02,16,15.90
2016,07,17,02,17,15.90
2016,07,17,02,18,15.90
2016,07,17,02,19,15.90
2016,07,17,02,20,15.90
2016,07,17,02,21,15.90
2016,07,17,02,22,15.90
2016,07,17,02,23,15.90
2016,07,17,02,24,15.90
2016,07,17,02,25,15.90
2016,07,17,02,26,15.90
2016,07,17,02,27,16.00
2016,07,17,02,28,16.00
2016,07,17,02,29,16.00
2016,07,17,02,30,16.00
2016,07,17,02,31,16.00
2016,07,17,02,32,16.00
2016,07,17,02,33,16.00
2016,07,17,02,34,16.00
2016,07,17,02,35,15.90
2016,07,17,02,36,15.90
2016,07,17,02,37,15.90
2016,07,17,02,38,15.90
2016,07,17,02,39,15.90
2016,07,17,02,40,15.90
2016,07,17,02,41,15.90
2016,07,17,02,42,15.90
2016,07,17,02,43,15.90
2016,07,17,02,44,15.90
2016,07,17,02,45,15.90
2016,07,17,02,46,15.90
2016,07,17,02,47,15.90
2016,07,17,02,48,15.90
2016,07,17,02,49,15.90
2016,07,17,02,50,16.00
2016,07,17,02,51,16.00
2016,07,17,02,52,16.00
2016,07,17,02,53,16.00
2016,07,17,02,54,16.00
2016,07,17,02,55,16.00
2016,07,17,02,56,16.00
2016,07,17,02,57,16.00
2016,07,17,02,58,16.00
2016,07,17,02,59,16.00
2016,07,17,03,00,16.00
2016,07,17,03,01,16.00
2016,07,17,03,02,16.00
2016,07,17,03,03,16.00
2016,07,17,03,04,16.00
2016,07,17,03,05,16.00
2016,07,17,03,06,16.00
2016,07,17,03,07,16.00
2016,07,17,03,08,16.00
2016,07,17,03,09,16.00
2016,07,17,03,10,16.00
2016,07,17,03,11,16.00
2016,07,17,03,12,16.00
2016,07,17,03,13,16.00
2016,07,17,03,14,16.00
2016,07,17,03,15,16.00
2016,07,17,03,16,16.00
2016,07,17,03,17,16.00
2016,07,17,03,18,15.90
2016,07,17,03,19,15.90
2016,07,17,03,20,15.90
2016,07,17,03,21,15.90
2016,07,17,03,22,15.90
2016,07,17,03,23,15.90
2016,07,17,03,24,15.90
2016,07,17,03,25,15.90
2016,07,17,03,26,15.90
2016,07,17,03,27,15.90
2016,07,17,03,28,15.90
2016,07,17,03,29,15.90
2016,07,17,03,30,15.90
2016,07,17,03,31,15.80
2016,07,17,03,32,15.80
2016,07,17,03,33,15.80
2016,07,17,03,34,15.80
2016,07,17,03,35,15.80
2016,07,17,03,36,15.80
2016,07,17,03,37,15.80
2016,07,17,03,38,15.80
2016,07,17,03,39,15.80
2016,07,17,03,40,15.80
2016,07,17,03,41,15.80
2016,07,17,03,42,15.70
2016,07,17,03,43,15.70
2016,07,17,03,44,15.70
2016,07,17,03,45,15.70
2016,07,17,03,46,15.70
2016,07,17,03,47,15.70
2016,07,17,03,48,15.70
2016,07,17,03,49,15.70
2016,07,17,03,50,15.70
2016,07,17,03,51,15.60
2016,07,17,03,52,15.60
2016,07,17,03,53,15.60
2016,07,17,03,54,15.60
2016,07,17,03,55,15.60
2016,07,17,03,56,15.60
2016,07,17,03,57,15.50
2016,07,17,03,58,15.50
2016,07,17,03,59,15.50
2016,07,17,04,00,15.40
2016,07,17,04,01,15.40
2016,07,17,04,02,15.40
2016,07,17,04,03,15.40
2016,07,17,04,04,15.40
2016,07,17,04,05,15.30
2016,07,17,04,06,15.30
2016,07,17,04,07,15.30
2016,07,17,04,08,15.30
2016,07,17,04,09,15.30
2016,07,17,04,10,15.20
2016,07,17,04,11,15.20
2016,07,17,04,12,15.20
2016,07,17,04,13,15.20
2016,07,17,04,14,15.20
2016,07,17,04,15,15.10
2016,07,17,04,16,15.10
2016,07,17,04,17,15.10
2016,07,17,04,18,15.10
2016,07,17,04,19,15.10
2016,07,17,04,20,15.00
2016,07,17,04,21,15.00
2016,07,17,04,22,15.00
2016,07,17,04,23,15.00
2016,07,17,04,24,15.00
2016,07,17,04,25,15.00
2016,07,17,04,26,15.00
2016,07,17,04,27,15.00
2016,07,17,04,28,15.00
2016,07,17,04,29,15.00
2016,07,17,04,30,15.00
2016,07,17,04,31,15.00
2016,07,17,04,32,15.00
2016,07,17,04,33,15.00
2016,07,17,04,34,15.00
2016,07,17,04,35,15.00
2016,07,17,04,36,15.00
2016,07,17,04,37,14.90
2016,07,17,04,38,14.90
2016,07,17,04,39,14.90
2016,07,17,04,40,14.80
2016,07,17,04,41,14.80
2016,07,17,04,42,14.80
2016,07,17,04,43,14.80
2016,07,17,04,44,14.80
2016,07,17,04,45,14.80
2016,07,17,04,46,14.80
2016,07,17,04,47,14.70
2016,07,17,04,48,14.70
2016,07,17,04,49,14.70
2016,07,17,04,50,14.70
2016,07,17,04,51,14.70
2016,07,17,04,52,14.70
2016,07,17,04,53,14.70
2016,07,17,04,54,14.70
2016,07,17,04,55,14.70
2016,07,17,04,56,14.70
2016,07,17,04,57,14.70
2016,07,17,04,58,14.60
2016,07,17,04,59,14.60
2016,07,17,05,00,14.60
2016,07,17,05,01,14.60
2016,07,17,05,02,14.60
2016,07,17,05,03,14.60
2016,07,17,05,04,14.60
2016,07,17,05,05,14.50
2016,07,17,05,06,14.50
2016,07,17,05,07,14.50
2016,07,17,05,08,14.50
2016,07,17,05,09,14.40
2016,07,17,05,10,14.40
2016,07,17,05,11,14.40
2016,07,17,05,12,14.40
2016,07,17,05,13,14.40
2016,07,17,05,14,14.40
2016,07,17,05,15,14.40
2016,07,17,05,16,14.40
2016,07,17,05,17,14.40
2016,07,17,05,18,14.30
2016,07,17,05,19,14.30
2016,07,17,05,20,14.30
2016,07,17,05,21,14.30
2016,07,17,05,22,14.30
2016,07,17,05,23,14.30
2016,07,17,05,24,14.30
2016,07,17,05,25,14.30
2016,07,17,05,26,14.30
2016,07,17,05,27,14.30
2016,07,17,05,28,14.30
2016,07,17,05,29,14.30
2016,07,17,05,30,14.30
2016,07,17,05,31,14.20
2016,07,17,05,32,14.30
2016,07,17,05,33,14.30
2016,07,17,05,34,14.30
2016,07,17,05,35,14.30
2016,07,17,05,36,14.20
2016,07,17,05,37,14.20
2016,07,17,05,38,14.20
2016,07,17,05,39,14.20
2016,07,17,05,40,14.20
2016,07,17,05,41,14.20
2016,07,17,05,42,14.20
2016,07,17,05,43,14.20
2016,07,17,05,44,14.20
2016,07,17,05,45,14.20
2016,07,17,05,46,14.20
2016,07,17,05,47,14.20
2016,07,17,05,48,14.20
2016,07,17,05,49,14.20
2016,07,17,05,50,14.20
2016,07,17,05,51,14.20
2016,07,17,05,52,14.20
2016,07,17,05,53,14.20
2016,07,17,05,54,14.20
2016,07,17,05,55,14.20
2016,07,17,05,56,14.20
2016,07,17,05,57,14.20
2016,07,17,05,58,14.20
2016,07,17,05,59,14.20
2016,07,17,06,00,14.20
2016,07,17,06,01,14.20
2016,07,17,06,02,14.20
2016,07,17,06,03,14.20
2016,07,17,06,04,14.20
2016,07,17,06,05,14.20
2016,07,17,06,06,14.20
2016,07,17,06,07,14.20
2016,07,17,06,08,14.20
2016,07,17,06,09,14.20
2016,07,17,06,10,14.20
2016,07,17,06,11,14.10
2016,07,17,06,12,14.20
2016,07,17,06,13,14.20
2016,07,17,06,14,14.20
2016,07,17,06,15,14.20
2016,07,17,06,16,14.20
2016,07,17,06,17,14.20
2016,07,17,06,18,14.20
2016,07,17,06,19,14.20
2016,07,17,06,20,14.10
2016,07,17,06,21,14.10
2016,07,17,06,22,14.10
2016,07,17,06,23,14.10
2016,07,17,06,24,14.10
2016,07,17,06,25,14.10
2016,07,17,06,26,14.20
2016,07,17,06,27,14.20
2016,07,17,06,28,14.20
2016,07,17,06,29,14.20
2016,07,17,06,30,14.20
2016,07,17,06,31,14.20
2016,07,17,06,32,14.20
2016,07,17,06,33,14.20
2016,07,17,06,34,14.20
2016,07,17,06,35,14.20
2016,07,17,06,36,14.30
2016,07,17,06,37,14.30
2016,07,17,06,38,14.30
2016,07,17,06,39,14.30
2016,07,17,06,40,14.30
2016,07,17,06,41,14.30
2016,07,17,06,42,14.30
2016,07,17,06,43,14.30
2016,07,17,06,44,14.30
2016,07,17,06,45,14.30
2016,07,17,06,46,14.30
2016,07,17,06,47,14.30
2016,07,17,06,48,14.40
2016,07,17,06,49,14.40
2016,07,17,06,50,14.40
2016,07,17,06,51,14.40
2016,07,17,06,52,14.40
2016,07,17,06,53,14.40
2016,07,17,06,54,14.40
2016,07,17,06,55,14.40
2016,07,17,06,56,14.40
2016,07,17,06,57,14.40
2016,07,17,06,58,14.40
2016,07,17,06,59,14.50
2016,07,17,07,00,14.50
2016,07,17,07,01,14.50
2016,07,17,07,02,14.50
2016,07,17,07,03,14.60
2016,07,17,07,04,14.60
2016,07,17,07,05,14.60
2016,07,17,07,06,14.60
2016,07,17,07,07,14.70
2016,07,17,07,08,14.70
2016,07,17,07,09,14.70
2016,07,17,07,10,14.80
2016,07,17,07,11,14.80
2016,07,17,07,12,14.80
2016,07,17,07,13,14.90
2016,07,17,07,14,14.90
2016,07,17,07,15,15.00
2016,07,17,07,16,15.00
2016,07,17,07,17,15.00
2016,07,17,07,18,15.00
2016,07,17,07,19,15.00
2016,07,17,07,20,15.00
2016,07,17,07,21,15.10
2016,07,17,07,22,15.10
2016,07,17,07,23,15.20
2016,07,17,07,24,15.20
2016,07,17,07,25,15.30
2016,07,17,07,26,15.30
2016,07,17,07,27,15.40
2016,07,17,07,28,15.40
2016,07,17,07,29,15.50
2016,07,17,07,30,15.60
2016,07,17,07,31,15.70
2016,07,17,07,32,15.80
2016,07,17,07,33,16.00
2016,07,17,07,34,16.10
2016,07,17,07,35,16.20
2016,07,17,07,36,16.30
2016,07,17,07,37,16.40
2016,07,17,07,38,16.50
2016,07,17,07,39,16.60
2016,07,17,07,40,16.70
2016,07,17,07,41,16.80
2016,07,17,07,42,16.90
2016,07,17,07,43,17.00
2016,07,17,07,44,17.20
2016,07,17,07,45,17.20
2016,07,17,07,46,17.40
2016,07,17,07,47,17.50
2016,07,17,07,48,17.70
2016,07,17,07,49,17.80
2016,07,17,07,50,17.90
2016,07,17,07,51,18.00
2016,07,17,07,52,18.20
2016,07,17,07,53,18.30
2016,07,17,07,54,18.50
2016,07,17,07,55,18.60
2016,07,17,07,56,18.70
2016,07,17,07,57,18.80
2016,07,17,07,58,18.90
2016,07,17,07,59,19.00
2016,07,17,08,00,19.10
2016,07,17,08,01,19.10
2016,07,17,08,02,19.20
2016,07,17,08,03,19.20
2016,07,17,08,04,19.30
2016,07,17,08,05,19.30
2016,07,17,08,06,19.40
2016,07,17,08,07,19.40
2016,07,17,08,08,19.50
2016,07,17,08,09,19.50
2016,07,17,08,10,19.60
2016,07,17,08,11,19.60
2016,07,17,08,12,19.70
2016,07,17,08,13,19.70
2016,07,17,08,14,19.80
2016,07,17,08,15,19.80
2016,07,17,08,16,19.80
2016,07,17,08,17,19.80
2016,07,17,08,18,19.80
2016,07,17,08,19,19.90
2016,07,17,08,20,19.90
2016,07,17,08,21,19.90
2016,07,17,08,22,20.00
2016,07,17,08,23,20.00
2016,07,17,08,24,20.00
2016,07,17,08,25,20.10
2016,07,17,08,26,20.10
2016,07,17,08,27,20.20
2016,07,17,08,28,20.10
2016,07,17,08,29,20.10
2016,07,17,08,30,20.10
2016,07,17,08,31,20.10
2016,07,17,08,32,20.10
2016,07,17,08,33,20.20
2016,07,17,08,34,20.30
2016,07,17,08,35,20.40
2016,07,17,08,36,20.40
2016,07,17,08,37,20.50
2016,07,17,08,38,20.50
2016,07,17,08,39,20.60
2016,07,17,08,40,20.60
2016,07,17,08,41,20.60
2016,07,17,08,42,20.60
2016,07,17,08,43,20.60
2016,07,17,08,44,20.70
2016,07,17,08,45,20.80
2016,07,17,08,46,20.90
2016,07,17,08,47,21.00
2016,07,17,08,48,21.10
2016,07,17,08,49,21.20
2016,07,17,08,50,21.20
2016,07,17,08,51,21.30
2016,07,17,08,52,21.30
2016,07,17,08,53,21.40
2016,07,17,08,54,21.40
2016,07,17,08,55,21.40
2016,07,17,08,56,21.40
2016,07,17,08,57,21.40
2016,07,17,08,58,21.40
2016,07,17,08,59,21.40
2016,07,17,09,00,21.50
2016,07,17,09,01,21.50
2016,07,17,09,02,21.50
2016,07,17,09,03,21.40
2016,07,17,09,04,21.40
2016,07,17,09,05,21.40
2016,07,17,09,06,21.30
2016,07,17,09,07,21.20
2016,07,17,09,08,21.10
2016,07,17,09,09,21.00
2016,07,17,09,10,20.90
2016,07,17,09,11,20.80
2016,07,17,09,12,20.70
2016,07,17,09,13,20.60
2016,07,17,09,14,20.60
2016,07,17,09,15,20.60
2016,07,17,09,16,20.60
2016,07,17,09,17,20.50
2016,07,17,09,18,20.50
2016,07,17,09,19,20.50
2016,07,17,09,20,20.60
2016,07,17,09,21,20.60
2016,07,17,09,22,20.70
2016,07,17,09,23,20.80
2016,07,17,09,24,20.80
2016,07,17,09,25,20.80
2016,07,17,09,26,20.80
2016,07,17,09,27,20.90
2016,07,17,09,28,20.80
2016,07,17,09,29,20.80
2016,07,17,09,30,20.80
2016,07,17,09,31,20.90
2016,07,17,09,32,21.00
2016,07,17,09,33,21.10
2016,07,17,09,34,21.20
2016,07,17,09,35,21.40
2016,07,17,09,36,21.60
2016,07,17,09,37,21.70
2016,07,17,09,38,21.80
2016,07,17,09,39,21.70
2016,07,17,09,40,21.70
2016,07,17,09,41,21.70
2016,07,17,09,42,21.70
2016,07,17,09,43,21.70
2016,07,17,09,44,21.70
2016,07,17,09,45,21.80
2016,07,17,09,46,21.80
2016,07,17,09,47,21.80
2016,07,17,09,48,21.80
2016,07,17,09,49,21.70
2016,07,17,09,50,21.70
2016,07,17,09,51,21.80
2016,07,17,09,52,21.80
2016,07,17,09,53,21.60
2016,07,17,09,54,21.60
2016,07,17,09,55,21.60
2016,07,17,09,56,21.60
2016,07,17,09,57,21.60
2016,07,17,09,58,21.70
2016,07,17,09,59,21.70
2016,07,17,10,00,21.60
2016,07,17,10,01,21.60
2016,07,17,10,02,21.60
2016,07,17,10,03,21.60
2016,07,17,10,04,21.70
2016,07,17,10,05,21.70
2016,07,17,10,06,21.80
2016,07,17,10,07,21.80
2016,07,17,10,08,21.90
2016,07,17,10,09,21.90
2016,07,17,10,10,21.80
2016,07,17,10,11,21.70
2016,07,17,10,12,21.50
2016,07,17,10,13,21.40
2016,07,17,10,14,21.30
2016,07,17,10,15,21.20
2016,07,17,10,16,21.10
2016,07,17,10,17,21.10
2016,07,17,10,18,21.10
2016,07,17,10,19,21.20
2016,07,17,10,20,21.20
2016,07,17,10,21,21.30
2016,07,17,10,22,21.40
2016,07,17,10,23,21.50
2016,07,17,10,24,21.60
2016,07,17,10,25,21.50
2016,07,17,10,26,21.50
2016,07,17,10,27,21.50
2016,07,17,10,28,21.60
2016,07,17,10,29,21.60
2016,07,17,10,30,21.60
2016,07,17,10,31,21.50
2016,07,17,10,32,21.40
2016,07,17,10,33,21.30
2016,07,17,10,34,21.30
2016,07,17,10,35,21.20
2016,07,17,10,36,21.20
2016,07,17,10,37,21.30
2016,07,17,10,38,21.40
2016,07,17,10,39,21.40
2016,07,17,10,40,21.50
2016,07,17,10,41,21.50
2016,07,17,10,42,21.50
2016,07,17,10,43,21.40
2016,07,17,10,44,21.50
2016,07,17,10,45,21.60
2016,07,17,10,46,21.70
2016,07,17,10,47,21.80
2016,07,17,10,48,21.90
2016,07,17,10,49,21.90
2016,07,17,10,50,22.00
2016,07,17,10,51,22.10
2016,07,17,10,52,22.10
2016,07,17,10,53,22.10
2016,07,17,10,54,22.10
2016,07,17,10,55,22.10
2016,07,17,10,56,22.00
2016,07,17,10,57,21.90
2016,07,17,10,58,21.90
2016,07,17,10,59,22.00
2016,07,17,11,00,22.00
2016,07,17,11,01,22.10
2016,07,17,11,02,22.00
2016,07,17,11,03,22.00
2016,07,17,11,04,22.00
2016,07,17,11,05,22.00
2016,07,17,11,06,22.10
2016,07,17,11,07,22.10
2016,07,17,11,08,22.20
2016,07,17,11,09,22.20
2016,07,17,11,10,22.30
2016,07,17,11,11,22.30
2016,07,17,11,12,22.40
2016,07,17,11,13,22.40
2016,07,17,11,14,22.30
2016,07,17,11,15,22.40
2016,07,17,11,16,22.40
2016,07,17,11,17,22.50
2016,07,17,11,18,22.50
2016,07,17,11,19,22.50
2016,07,17,11,20,22.50
2016,07,17,11,21,22.60
2016,07,17,11,22,22.70
2016,07,17,11,23,22.70
2016,07,17,11,24,22.70
2016,07,17,11,25,22.60
2016,07,17,11,26,22.60
2016,07,17,11,27,22.40
2016,07,17,11,28,22.30
2016,07,17,11,29,22.20
2016,07,17,11,30,22.00
2016,07,17,11,31,21.90
2016,07,17,11,32,21.90
2016,07,17,11,33,21.90
2016,07,17,11,34,21.90
2016,07,17,11,35,21.90
2016,07,17,11,36,21.90
2016,07,17,11,37,21.80
2016,07,17,11,38,21.90
2016,07,17,11,39,22.00
2016,07,17,11,40,22.20
2016,07,17,11,41,22.30
2016,07,17,11,42,22.30
2016,07,17,11,43,22.40
2016,07,17,11,44,22.40
2016,07,17,11,45,22.30
2016,07,17,11,46,22.40
2016,07,17,11,47,22.50
2016,07,17,11,48,22.60
2016,07,17,11,49,22.80
2016,07,17,11,50,22.90
2016,07,17,11,51,23.00
2016,07,17,11,52,23.00
2016,07,17,11,53,22.90
2016,07,17,11,54,23.00
2016,07,17,11,55,23.10
2016,07,17,11,56,23.00
2016,07,17,11,57,23.00
2016,07,17,11,58,22.90
2016,07,17,11,59,23.00
2016,07,17,12,00,23.10
2016,07,17,12,01,23.10
2016,07,17,12,02,23.00
2016,07,17,12,03,23.00
2016,07,17,12,04,23.00
2016,07,17,12,05,23.00
2016,07,17,12,06,23.10
2016,07,17,12,07,23.20
2016,07,17,12,08,23.20
2016,07,17,12,09,23.20
2016,07,17,12,10,23.10
2016,07,17,12,11,23.00
2016,07,17,12,12,23.00
2016,07,17,12,13,23.00
2016,07,17,12,14,23.10
2016,07,17,12,15,23.10
2016,07,17,12,16,23.20
2016,07,17,12,17,23.20
2016,07,17,12,18,23.30
2016,07,17,12,19,23.50
2016,07,17,12,20,23.50
2016,07,17,12,21,23.40
2016,07,17,12,22,23.40
2016,07,17,12,23,23.40
2016,07,17,12,24,23.50
2016,07,17,12,25,23.70
2016,07,17,12,26,23.70
2016,07,17,12,27,23.80
2016,07,17,12,28,23.80
2016,07,17,12,29,23.80
2016,07,17,12,30,23.80
2016,07,17,12,31,23.80
2016,07,17,12,32,23.80
2016,07,17,12,33,23.90
2016,07,17,12,34,23.90
2016,07,17,12,35,23.90
2016,07,17,12,36,23.80
2016,07,17,12,37,23.60
2016,07,17,12,38,23.50
2016,07,17,12,39,23.40
2016,07,17,12,40,23.40
2016,07,17,12,41,23.40
2016,07,17,12,42,23.40
2016,07,17,12,43,23.40
2016,07,17,12,44,23.30
2016,07,17,12,45,23.20
2016,07,17,12,46,23.20
2016,07,17,12,47,23.10
2016,07,17,12,48,23.10
2016,07,17,12,49,23.00
2016,07,17,12,50,23.00
2016,07,17,12,51,22.90
2016,07,17,12,52,22.90
2016,07,17,12,53,22.80
2016,07,17,12,54,22.70
2016,07,17,12,55,22.60
2016,07,17,12,56,22.40
2016,07,17,12,57,22.40
2016,07,17,12,58,22.50
2016,07,17,12,59,22.60
2016,07,17,13,00,22.80
2016,07,17,13,01,22.90
2016,07,17,13,02,22.90
2016,07,17,13,03,22.90
2016,07,17,13,04,22.90
2016,07,17,13,05,22.90
2016,07,17,13,06,23.00
2016,07,17,13,07,23.00
2016,07,17,13,08,22.90
2016,07,17,13,09,22.80
2016,07,17,13,10,22.70
2016,07,17,13,11,22.60
2016,07,17,13,12,22.50
2016,07,17,13,13,22.60
2016,07,17,13,14,22.60
2016,07,17,13,15,22.80
2016,07,17,13,16,22.80
2016,07,17,13,17,22.80
2016,07,17,13,18,22.80
2016,07,17,13,19,22.70
2016,07,17,13,20,22.70
2016,07,17,13,21,22.80
2016,07,17,13,22,22.90
2016,07,17,13,23,22.90
2016,07,17,13,24,23.00
2016,07,17,13,25,22.90
2016,07,17,13,26,22.80
2016,07,17,13,27,22.70
2016,07,17,13,28,22.70
2016,07,17,13,29,22.70
2016,07,17,13,30,22.70
2016,07,17,13,31,22.80
2016,07,17,13,32,22.90
2016,07,17,13,33,23.00
2016,07,17,13,34,23.00
2016,07,17,13,35,23.00
2016,07,17,13,36,22.80
2016,07,17,13,37,22.70
2016,07,17,13,38,22.60
2016,07,17,13,39,22.60
2016,07,17,13,40,22.60
2016,07,17,13,41,22.60
2016,07,17,13,42,22.50
2016,07,17,13,43,22.30
2016,07,17,13,44,22.20
2016,07,17,13,45,22.10
2016,07,17,13,46,22.00
2016,07,17,13,47,21.90
2016,07,17,13,48,21.80
2016,07,17,13,49,21.80
2016,07,17,13,50,21.80
2016,07,17,13,51,21.80
2016,07,17,13,52,21.90
2016,07,17,13,53,22.00
2016,07,17,13,54,22.10
2016,07,17,13,55,22.30
2016,07,17,13,56,22.40
2016,07,17,13,57,22.40
2016,07,17,13,58,22.40
2016,07,17,13,59,22.50
2016,07,17,14,00,22.60
2016,07,17,14,01,22.60
2016,07,17,14,02,22.60
2016,07,17,14,03,22.70
2016,07,17,14,04,22.70
2016,07,17,14,05,22.80
2016,07,17,14,06,22.90
2016,07,17,14,07,23.00
2016,07,17,14,08,23.10
2016,07,17,14,09,23.20
2016,07,17,14,10,23.30
2016,07,17,14,11,23.40
2016,07,17,14,12,23.50
2016,07,17,14,13,23.60
2016,07,17,14,14,23.60
2016,07,17,14,15,23.60
2016,07,17,14,16,23.60
2016,07,17,14,17,23.70
2016,07,17,14,18,23.80
2016,07,17,14,19,23.90
2016,07,17,14,20,23.90
2016,07,17,14,21,24.00
2016,07,17,14,22,24.00
2016,07,17,14,23,24.20
2016,07,17,14,24,24.20
2016,07,17,14,25,24.20
2016,07,17,14,26,24.00
2016,07,17,14,27,23.80
2016,07,17,14,28,23.60
2016,07,17,14,29,23.50
2016,07,17,14,30,23.40
2016,07,17,14,31,23.30
2016,07,17,14,32,23.20
2016,07,17,14,33,23.10
2016,07,17,14,34,23.10
2016,07,17,14,35,23.30
2016,07,17,14,36,23.40
2016,07,17,14,37,23.40
2016,07,17,14,38,23.40
2016,07,17,14,39,23.50
2016,07,17,14,40,23.60
2016,07,17,14,41,23.60
2016,07,17,14,42,23.50
2016,07,17,14,43,23.40
2016,07,17,14,44,23.40
2016,07,17,14,45,23.60
2016,07,17,14,46,23.80
2016,07,17,14,47,23.90
2016,07,17,14,48,23.90
2016,07,17,14,49,24.00
2016,07,17,14,50,24.10
2016,07,17,14,51,24.10
2016,07,17,14,52,24.10
2016,07,17,14,53,24.10
2016,07,17,14,54,24.20
2016,07,17,14,55,24.30
2016,07,17,14,56,24.30
2016,07,17,14,57,24.30
2016,07,17,14,58,24.40
2016,07,17,14,59,24.50
2016,07,17,15,00,24.40
2016,07,17,15,01,24.30
2016,07,17,15,02,24.30
2016,07,17,15,03,24.40
2016,07,17,15,04,24.50
2016,07,17,15,05,24.50
2016,07,17,15,06,24.60
2016,07,17,15,07,24.60
2016,07,17,15,08,24.50
2016,07,17,15,09,24.40
2016,07,17,15,10,24.30
2016,07,17,15,11,24.40
2016,07,17,15,12,24.50
2016,07,17,15,13,24.70
2016,07,17,15,14,24.80
2016,07,17,15,15,24.70
2016,07,17,15,16,24.60
2016,07,17,15,17,24.60
2016,07,17,15,18,24.60
2016,07,17,15,19,24.60
2016,07,17,15,20,24.60
2016,07,17,15,21,24.60
2016,07,17,15,22,24.60
2016,07,17,15,23,24.60
2016,07,17,15,24,24.60
2016,07,17,15,25,24.40
2016,07,17,15,26,24.30
2016,07,17,15,27,24.20
2016,07,17,15,28,24.20
2016,07,17,15,29,24.30
2016,07,17,15,30,24.40
2016,07,17,15,31,24.40
2016,07,17,15,32,24.40
2016,07,17,15,33,24.20
2016,07,17,15,34,24.10
2016,07,17,15,35,24.10
2016,07,17,15,36,24.00
2016,07,17,15,37,23.90
2016,07,17,15,38,23.80
2016,07,17,15,39,23.80
2016,07,17,15,40,23.80
2016,07,17,15,41,23.70
2016,07,17,15,42,23.70
2016,07,17,15,43,23.60
2016,07,17,15,44,23.50
2016,07,17,15,45,23.40
2016,07,17,15,46,23.40
2016,07,17,15,47,23.40
2016,07,17,15,48,23.40
2016,07,17,15,49,23.50
2016,07,17,15,50,23.50
2016,07,17,15,51,23.50
2016,07,17,15,52,23.50
2016,07,17,15,53,23.50
2016,07,17,15,54,23.60
2016,07,17,15,55,23.60
2016,07,17,15,56,23.70
2016,07,17,15,57,23.80
2016,07,17,15,58,23.70
2016,07,17,15,59,23.60
2016,07,17,16,00,23.60
2016,07,17,16,01,23.50
2016,07,17,16,02,23.40
2016,07,17,16,03,23.40
2016,07,17,16,04,23.30
2016,07,17,16,05,23.20
2016,07,17,16,06,23.10
2016,07,17,16,07,23.00
2016,07,17,16,08,23.00
2016,07,17,16,09,22.90
2016,07,17,16,10,22.80
2016,07,17,16,11,22.80
2016,07,17,16,12,22.90
2016,07,17,16,13,23.00
2016,07,17,16,14,22.90
2016,07,17,16,15,22.90
2016,07,17,16,16,23.00
2016,07,17,16,17,22.90
2016,07,17,16,18,22.90
2016,07,17,16,19,22.90
2016,07,17,16,20,23.00
2016,07,17,16,21,23.10
2016,07,17,16,22,23.20
2016,07,17,16,23,23.20
2016,07,17,16,24,23.30
2016,07,17,16,25,23.30
2016,07,17,16,26,23.30
2016,07,17,16,27,23.20
2016,07,17,16,28,23.20
2016,07,17,16,29,23.30
2016,07,17,16,30,23.40
2016,07,17,16,31,23.40
2016,07,17,16,32,23.40
2016,07,17,16,33,23.50
2016,07,17,16,34,23.60
2016,07,17,16,35,23.60
2016,07,17,16,36,23.70
2016,07,17,16,37,23.70
2016,07,17,16,38,23.70
2016,07,17,16,39,23.70
2016,07,17,16,40,23.70
2016,07,17,16,41,23.70
2016,07,17,16,42,23.70
2016,07,17,16,43,23.80
2016,07,17,16,44,23.80
2016,07,17,16,45,23.80
2016,07,17,16,46,23.80
2016,07,17,16,47,23.90
2016,07,17,16,48,23.90
2016,07,17,16,49,23.90
2016,07,17,16,50,23.90
2016,07,17,16,51,23.90
2016,07,17,16,52,23.90
2016,07,17,16,53,23.90
2016,07,17,16,54,23.90
2016,07,17,16,55,23.80
2016,07,17,16,56,23.90
2016,07,17,16,57,23.90
2016,07,17,16,58,23.90
2016,07,17,16,59,23.90
2016,07,17,17,00,23.90
2016,07,17,17,01,23.90
2016,07,17,17,02,23.90
2016,07,17,17,03,23.80
2016,07,17,17,04,23.80
2016,07,17,17,05,23.70
2016,07,17,17,06,23.70
2016,07,17,17,07,23.60
2016,07,17,17,08,23.70
2016,07,17,17,09,23.60
2016,07,17,17,10,23.60
2016,07,17,17,11,23.70
2016,07,17,17,12,23.70
2016,07,17,17,13,23.70
2016,07,17,17,14,23.70
2016,07,17,17,15,23.70
2016,07,17,17,16,23.70
2016,07,17,17,17,23.70
2016,07,17,17,18,23.70
2016,07,17,17,19,23.70